GW4004 Weather Reports


time (UTC)temp
F
wind
direction
speed
knots
gust
knots
rain 1hr
in
rain 24hr
in
rain mn
in
humidity
%
barometer
mb
20260504080643 48 198 0.0 0.9 0.00 0.00 0.00 92 1018.0
20260504080139 48 198 0.0 0.0 0.00 0.00 0.00 92 1017.9
20260504070108 50 198 0.0 0.0 0.00 0.00 0.00 91 1018.2
20260504050456 53 199 0.0 0.0 0.00 0.00 0.00 86 1018.7
20260504045953 53 199 0.0 0.0 0.00 0.00 0.00 86 1018.7
20260504045449 53 199 0.0 0.0 0.00 0.00 0.00 86 1018.8
20260504044945 53 199 0.0 0.0 0.00 0.00 0.00 85 1018.7
20260504044443 53 199 0.0 0.0 0.00 0.00 0.00 85 1018.8
20260504043940 54 199 0.0 0.0 0.00 0.00 0.00 85 1018.8
20260504043437 54 199 0.0 0.0 0.00 0.00 0.00 86 1018.8
20260504042934 54 199 0.0 0.0 0.00 0.00 0.00 85 1018.8
20260504042431 54 199 0.0 0.0 0.00 0.00 0.00 85 1018.7
20260504041927 54 199 0.0 0.0 0.00 0.00 0.00 85 1018.7
20260504041424 54 199 0.0 0.0 0.00 0.00 0.00 85 1018.8
20260504040920 54 199 0.0 0.0 0.00 0.00 0.00 85 1018.7
20260504040418 54 200 0.0 0.0 0.00 0.00 0.00 85 1018.6
20260504035913 54 200 0.0 0.0 0.00 0.00 0.00 85 1018.7
20260504035411 55 200 0.0 0.0 0.00 0.00 0.00 84 1018.8
20260504034908 55 200 0.0 0.0 0.00 0.00 0.00 84 1018.6
20260504034405 55 199 0.0 0.0 0.00 0.00 0.00 84 1018.4
20260504033902 55 200 0.0 0.0 0.00 0.00 0.00 83 1018.5
20260504033400 56 200 0.0 0.0 0.00 0.00 0.00 83 1018.6
20260504032856 56 200 0.0 0.9 0.00 0.00 0.00 82 1018.8
20260504032353 56 200 0.0 0.0 0.00 0.00 0.00 82 1018.6
20260504031850 57 200 0.0 0.0 0.00 0.00 0.00 82 1018.9
20260504031347 57 200 0.0 0.0 0.00 0.00 0.00 82 1018.7
20260504030843 57 200 0.0 0.0 0.00 0.00 0.00 81 1018.5
20260504030341 58 200 0.0 0.0 0.00 0.00 0.00 81 1018.7
20260504025837 58 199 0.0 0.0 0.00 0.00 0.00 77 1018.7
20260504025334 59 199 0.0 0.0 0.00 0.00 0.00 75 1018.7
20260504024831 58 199 0.0 0.0 0.00 0.00 0.00 75 1018.7
20260504024327 58 199 0.0 0.0 0.00 0.00 0.00 75 1018.5
20260504023824 59 199 0.0 0.9 0.00 0.00 0.00 77 1018.5
20260504023321 59 199 0.0 0.0 0.00 0.00 0.00 76 1018.5
20260504022816 59 199 0.0 0.0 0.00 0.00 0.00 73 1018.5
20260504022314 59 199 0.0 0.0 0.00 0.00 0.00 72 1018.5
20260504021810 59 199 0.9 0.9 0.00 0.00 0.00 71 1018.5
20260504021308 60 196 1.7 2.6 0.00 0.00 0.00 73 1018.2
20260504020804 60 196 0.0 0.0 0.00 0.00 0.00 76 1018.2
20260504020301 61 197 0.0 0.0 0.00 0.00 0.00 72 1018.0
20260504015757 61 196 0.9 0.9 0.00 0.00 0.00 73 1018.2
20260504015253 61 197 0.0 0.0 0.00 0.00 0.00 70 1018.2
20260504014749 61 196 0.0 0.0 0.00 0.00 0.00 65 1018.2
20260504014246 62 196 0.9 0.9 0.00 0.00 0.00 64 1018.0
20260504013744 62 196 0.9 0.9 0.00 0.00 0.00 62 1017.9
20260504013241 62 196 0.0 0.9 0.00 0.00 0.00 62 1017.9
20260504012737 62 196 0.0 0.0 0.00 0.00 0.00 62 1017.9
20260504012235 62 196 0.9 2.6 0.00 0.00 0.00 63 1018.0
20260504011732 62 199 0.9 0.9 0.00 0.00 0.00 66 1017.7
20260504011229 62 199 0.0 0.0 0.00 0.00 0.00 66 1017.6
20260504010725 63 201 0.0 0.0 0.00 0.00 0.00 59 1017.5
20260504010220 64 200 0.0 0.0 0.00 0.00 0.00 55 1017.5
20260504005717 65 200 0.0 0.0 0.00 0.00 0.00 56 1017.3
20260504005215 66 200 0.0 0.0 0.00 0.00 0.00 61 1017.6
20260504004712 67 200 0.0 0.0 0.00 0.00 0.00 53 1017.3
20260504004209 68 200 0.0 0.9 0.00 0.00 0.00 49 1017.4
20260504003706 69 200 0.0 0.9 0.00 0.00 0.00 48 1017.3
20260504003203 70 200 0.0 0.0 0.00 0.00 0.00 45 1017.4
20260504002659 71 200 0.0 0.0 0.00 0.00 0.00 44 1017.3
20260504002157 72 200 0.0 2.6 0.00 0.00 0.00 39 1017.2
20260504001655 72 202 0.9 0.9 0.00 0.00 0.00 38 1017.2
20260504001150 73 200 1.7 2.6 0.00 0.00 0.00 37 1017.2
20260504000647 73 196 1.7 2.6 0.00 0.00 0.00 37 1016.9
20260504000145 73 190 2.6 3.5 0.00 0.00 0.00 36 1017.1
20260503235643 74 196 1.7 3.5 0.00 0.00 0.00 36 1017.2
20260503235139 74 200 0.9 3.5 0.00 0.00 0.00 36 1017.1
20260503234638 75 199 1.7 4.3 0.00 0.00 0.00 34 1017.0
20260503234135 75 200 0.0 2.6 0.00 0.00 0.00 35 1017.1
20260503233632 75 191 3.5 3.5 0.00 0.00 0.00 33 1017.0
20260503233127 75 197 1.7 3.5 0.00 0.00 0.00 34 1017.2
20260503232625 76 197 4.3 7.0 0.00 0.00 0.00 32 1017.1
20260503232122 76 207 1.7 6.1 0.00 0.00 0.00 32 1017.1
20260503231620 76 198 1.7 4.3 0.00 0.00 0.00 32 1017.1
20260503231116 76 209 0.0 2.6 0.00 0.00 0.00 32 1017.0
20260503230613 76 205 0.9 6.1 0.00 0.00 0.00 31 1017.0
20260503230110 76 197 1.7 3.5 0.00 0.00 0.00 31 1017.1
20260503225608 77 194 4.3 7.0 0.00 0.00 0.00 31 1017.0
20260503225107 77 220 6.1 7.0 0.00 0.00 0.00 30 1017.0
20260503224605 77 190 7.0 9.6 0.00 0.00 0.00 30 1017.1
20260503224103 77 186 7.8 10.4 0.00 0.00 0.00 30 1017.1
20260503223601 77 200 5.2 7.0 0.00 0.00 0.00 30 1016.8
20260503223056 77 192 2.6 6.1 0.00 0.00 0.00 30 1016.7
20260503222554 78 232 1.7 3.5 0.00 0.00 0.00 29 1017.0
20260503222052 78 201 5.2 7.0 0.00 0.00 0.00 28 1016.9
20260503221550 78 198 2.6 8.7 0.00 0.00 0.00 29 1016.9
20260503221047 78 191 0.0 0.9 0.00 0.00 0.00 28 1017.0
20260503220543 78 197 4.3 7.0 0.00 0.00 0.00 28 1017.1
20260503220040 79 188 2.6 8.7 0.00 0.00 0.00 28 1017.2
20260503215537 80 192 5.2 8.7 0.00 0.00 0.00 28 1017.2
20260503215034 81 193 2.6 9.6 0.00 0.00 0.00 27 1017.1
20260503214532 82 187 4.3 8.7 0.00 0.00 0.00 27 1017.3
20260503214029 81 202 0.0 2.6 0.00 0.00 0.00 28 1017.3
20260503213527 81 224 3.5 8.7 0.00 0.00 0.00 27 1017.6
20260503213024 80 191 3.5 7.0 0.00 0.00 0.00 28 1017.6
20260503212521 81 189 7.8 12.2 0.00 0.00 0.00 28 1017.3
20260503212018 80 208 2.6 7.0 0.00 0.00 0.00 27 1017.5
20260503211515 80 190 3.5 7.0 0.00 0.00 0.00 27 1017.5
20260503211011 81 207 7.8 13.0 0.00 0.00 0.00 26 1017.5
20260503210508 81 214 5.2 9.6 0.00 0.00 0.00 26 1017.5
20260503210003 83 194 7.0 9.6 0.00 0.00 0.00 26 1017.7
20260503205500 83 204 2.6 7.0 0.00 0.00 0.00 28 1017.5
20260503204956 82 184 5.2 8.7 0.00 0.00 0.00 27 1017.8
20260503204454 82 193 2.6 9.6 0.00 0.00 0.00 27 1017.7
20260503203950 82 202 2.6 6.1 0.00 0.00 0.00 27 1017.7
20260503203448 83 195 6.1 8.7 0.00 0.00 0.00 26 1017.8
20260503202944 83 198 1.7 6.1 0.00 0.00 0.00 30 1018.0
20260503202443 82 196 4.3 8.7 0.00 0.00 0.00 28 1018.0
20260503201941 81 208 0.9 4.3 0.00 0.00 0.00 27 1018.1
20260503201438 81 192 5.2 10.4 0.00 0.00 0.00 28 1018.1
20260503200935 82 210 8.7 13.9 0.00 0.00 0.00 26 1018.1
20260503200431 82 192 5.2 8.7 0.00 0.00 0.00 28 1018.0
20260503195928 82 204 2.6 6.1 0.00 0.00 0.00 26 1018.4
20260503195426 82 193 2.6 6.1 0.00 0.00 0.00 26 1018.5
20260503194922 82 198 0.9 7.0 0.00 0.00 0.00 26 1018.5
20260503194419 80 193 0.0 6.1 0.00 0.00 0.00 29 1018.8
20260503193914 80 194 6.1 13.0 0.00 0.00 0.00 27 1018.9
20260503193410 81 192 3.5 7.0 0.00 0.00 0.00 28 1018.7
20260503192906 81 199 1.7 6.1 0.00 0.00 0.00 28 1018.9
20260503192402 81 199 4.3 9.6 0.00 0.00 0.00 28 1019.1
20260503191858 82 190 3.5 9.6 0.00 0.00 0.00 29 1019.1
20260503191355 81 198 1.7 3.5 0.00 0.00 0.00 30 1019.2
20260503190852 81 225 2.6 4.3 0.00 0.00 0.00 26 1019.4
20260503190349 81 187 5.2 7.0 0.00 0.00 0.00 28 1019.4
20260503185846 80 195 5.2 8.7 0.00 0.00 0.00 25 1019.4
20260503185342 79 195 6.1 7.0 0.00 0.00 0.00 27 1019.6
20260503184842 79 200 4.3 8.7 0.00 0.00 0.00 27 1019.5
20260503184338 79 198 8.7 10.4 0.00 0.00 0.00 28 1019.7
20260503183834 79 190 3.5 7.0 0.00 0.00 0.00 28 1019.6
20260503183332 80 189 2.6 13.9 0.00 0.00 0.00 28 1019.8
20260503182829 81 174 5.2 8.7 0.00 0.00 0.00 28 1019.9
20260503182328 80 191 5.2 6.1 0.00 0.00 0.00 31 1020.0
20260503181825 79 185 7.0 10.4 0.00 0.00 0.00 29 1019.9
20260503181322 80 199 5.2 8.7 0.00 0.00 0.00 28 1019.9
20260503180818 80 198 2.6 6.1 0.00 0.00 0.00 31 1019.8
20260503180316 79 194 3.5 13.0 0.00 0.00 0.00 27 1019.8
20260503175812 79 208 1.7 12.2 0.00 0.00 0.00 31 1019.8
20260503175311 79 193 6.1 7.0 0.00 0.00 0.00 29 1020.0
20260503174806 79 201 2.6 6.1 0.00 0.00 0.00 33 1020.0
20260503174304 79 196 6.1 9.6 0.00 0.00 0.00 26 1020.0
20260503173759 78 194 3.5 7.0 0.00 0.00 0.00 28 1020.1
20260503173255 78 201 5.2 9.6 0.00 0.00 0.00 28 1020.2
20260503172752 78 195 2.6 4.3 0.00 0.00 0.00 30 1020.2
20260503172250 78 182 5.2 7.0 0.00 0.00 0.00 31 1020.3
20260503171746 77 266 0.9 6.1 0.00 0.00 0.00 31 1020.3
20260503171243 77 192 7.0 10.4 0.00 0.00 0.00 27 1020.3
20260503170740 77 199 4.3 6.1 0.00 0.00 0.00 28 1020.6
20260503170237 77 197 4.3 6.1 0.00 0.00 0.00 28 1020.6
20260503160159 75 187 7.8 12.2 0.00 0.00 0.00 31 1021.3
20260503150629 72 205 5.2 7.0 0.00 0.00 0.00 36 1021.7
20260503150125 71 207 3.5 6.1 0.00 0.00 0.00 39 1021.6
20260503131019 57 197 0.9 3.5 0.00 0.00 0.00 73 1020.6
20260503130516 56 197 0.0 0.9 0.00 0.00 0.00 78 1020.4
20260503110412 43 198 0.0 0.0 0.00 0.00 0.00 95 1020.0
20260503090309 44 199 0.0 0.0 0.00 0.00 0.00 94 1019.3
20260503081242 45 200 0.0 0.0 0.00 0.00 0.00 94 1019.0